Date String (YYYY-MM-DD hh:mm:ss) UTC,Instrument flags,Ambient pressure (hPa),Sample flow (lpm),Bypass flow (lpm),Sample temperature (°C),Ambient temperature (°C),ASC tube jacket temperature (°C),LED temperature (°C),Box temperature (°C),Sample RH (%),Span deviation,Mass concentration (μg/m³),Mass concentration (μg/m³),Mass concentration (μg/m³)
DateTimeUTC,F1_M11,P_M11,Q1_M11,Q2_M11,T1_M11,T2_M11,T3_M11,T4_M11,T5_M11,U1_M11,ZSPAN_M11,X0_M11,X2_M11,X1_M11
2022-10-23 18:00:00,,0804.6,4.99,0.00,30.2,29.0,00.0,39.0,32.1,11.2,0000.0,0011.06,0002.80,0001.76
2022-10-23 18:01:00,,0804.7,5.01,0.00,30.2,29.1,00.0,39.0,32.1,11.1,0000.0,0011.22,0003.11,0001.93
2022-10-23 18:02:00,,0804.7,5.00,0.00,30.3,29.1,00.0,39.1,32.1,11.2,0000.0,0011.61,0003.33,0002.12
2022-10-23 18:03:00,,0804.7,4.99,0.00,30.3,29.1,00.0,39.1,32.2,11.2,0000.0,0012.17,0003.58,0002.31
2022-10-23 18:04:00,,0804.7,5.02,0.00,30.3,29.2,00.0,39.1,32.2,11.1,0000.0,0013.37,0003.80,0002.50
2022-10-23 18:05:00,,0804.7,5.00,0.00,30.3,29.2,00.0,39.1,32.2,11.1,0000.0,0014.03,0003.94,0002.65
2022-10-23 18:06:00,,0804.7,4.99,0.00,30.4,29.2,00.0,39.1,32.2,11.0,0000.0,0014.22,0004.04,0002.78
2022-10-23 18:07:00,,0804.7,5.02,0.00,30.4,29.3,00.0,39.2,32.3,11.3,0000.0,0014.04,0004.13,0002.86
2022-10-23 18:08:00,,0804.8,4.99,0.00,30.4,29.3,00.0,39.2,32.3,11.3,0000.0,0013.84,0004.22,0002.90
2022-10-23 18:09:00,,0804.8,5.00,0.00,30.4,29.3,00.0,39.2,32.3,11.4,0000.0,0013.46,0004.25,0002.93
2022-10-23 18:10:00,,0804.9,5.02,0.00,30.5,29.3,00.0,39.2,32.3,11.3,0000.0,0013.36,0004.22,0002.94
2022-10-23 18:11:00,,0804.9,5.00,0.00,30.5,29.3,00.0,39.3,32.4,11.2,0000.0,0012.97,0004.18,0002.94
2022-10-23 18:12:00,,0804.9,4.99,0.00,30.5,29.4,00.0,39.3,32.4,11.4,0000.0,0013.33,0004.11,0002.90
2022-10-23 18:13:00,,0804.9,4.99,0.00,30.5,29.4,00.0,39.3,32.4,11.5,0000.0,0012.98,0004.04,0002.86
2022-10-23 18:14:00,,0805.0,5.02,0.00,30.6,29.4,00.0,39.3,32.5,11.2,0000.0,0012.62,0004.00,0002.84
2022-10-23 18:15:00,,0804.9,4.99,0.00,30.6,29.5,00.0,39.4,32.5,11.1,0000.0,0012.30,0003.93,0002.83
2022-10-23 18:16:00,,0804.9,5.00,0.00,30.6,29.5,00.0,39.4,32.5,11.0,0000.0,0012.13,0003.92,0002.83
2022-10-23 18:17:00,,0804.9,4.99,0.00,30.6,28.6,00.0,39.4,32.4,11.0,0000.0,0012.41,0003.90,0002.80
2022-10-23 18:18:00,,0804.8,5.02,0.00,30.6,27.0,00.0,39.3,32.2,11.1,0000.0,0013.14,0003.84,0002.77
2022-10-23 18:19:00,,0804.8,5.00,0.00,30.5,26.4,00.0,39.2,32.1,11.3,0000.0,0013.75,0003.82,0002.78
2022-10-23 18:20:00,,0804.8,4.98,0.00,30.4,26.7,00.0,39.2,32.1,11.4,0000.0,0013.78,0003.82,0002.80
2022-10-23 18:21:00,,0804.8,5.02,0.00,30.3,27.1,00.0,39.2,32.0,11.2,0000.0,0013.91,0003.86,0002.84
2022-10-23 18:22:00,,0804.8,4.99,0.00,30.3,27.5,00.0,39.2,32.0,11.1,0000.0,0014.02,0003.88,0002.86
2022-10-23 18:23:00,,0804.8,5.00,0.00,30.2,27.8,00.0,39.1,32.0,11.2,0000.0,0014.29,0003.95,0002.90
2022-10-23 18:24:00,,0804.8,5.02,0.00,30.2,28.0,00.0,39.1,32.0,11.3,0000.0,0013.72,0003.99,0002.94
2022-10-23 18:25:00,,0804.8,4.99,0.00,30.2,28.3,00.0,39.1,32.0,11.3,0000.0,0013.49,0003.97,0002.95
2022-10-23 18:26:00,,0804.7,5.01,0.00,30.2,28.4,00.0,39.1,32.0,11.3,0000.0,0012.95,0003.98,0002.99
2022-10-23 18:27:00,,0804.7,5.00,0.00,30.2,28.6,00.0,39.1,32.0,11.2,0000.0,0013.75,0003.99,0003.00
2022-10-23 18:28:00,,0804.8,4.99,0.00,30.2,28.7,00.0,39.1,32.0,11.2,0000.0,0013.73,0004.00,0002.99
2022-10-23 18:29:00,,0804.8,5.00,0.00,30.2,28.8,00.0,39.1,32.1,11.3,0000.0,0012.80,0004.00,0002.99
2022-10-23 18:30:00,,0804.7,4.99,0.00,30.3,28.9,00.0,39.1,32.1,11.3,0000.0,0012.13,0004.01,0003.00
2022-10-23 18:31:00,,0804.7,5.01,0.00,30.3,29.0,00.0,39.1,32.1,11.2,0000.0,0012.22,0004.05,0003.05
2022-10-23 18:32:00,,0804.7,5.00,0.00,30.3,29.0,00.0,39.1,32.1,11.2,0000.0,0012.29,0004.04,0003.07
2022-10-23 18:33:00,,0804.8,4.99,0.00,30.3,29.1,00.0,39.2,32.2,11.2,0000.0,0012.54,0004.10,0003.09
2022-10-23 18:34:00,,0804.8,4.99,0.00,30.3,29.1,00.0,39.2,32.2,11.2,0000.0,0012.67,0004.07,0003.08
2022-10-23 18:35:00,,0804.8,5.00,0.00,30.4,29.2,00.0,39.2,32.2,11.2,0000.0,0013.66,0004.09,0003.11
2022-10-23 18:36:00,,0804.8,5.01,0.00,30.4,29.2,00.0,39.2,32.2,11.3,0000.0,0014.54,0004.13,0003.12
2022-10-23 18:37:00,,0804.8,4.99,0.00,30.4,29.2,00.0,39.2,32.3,11.2,0000.0,0014.53,0004.09,0003.09
2022-10-23 18:38:00,,0804.8,5.00,0.00,30.4,29.3,00.0,39.2,32.3,11.1,0000.0,0013.86,0004.05,0003.07
2022-10-23 18:39:00,,0804.8,5.00,0.00,30.5,29.3,00.0,39.3,32.4,11.1,0000.0,0014.24,0004.01,0003.03
2022-10-23 18:40:00,,0804.8,5.01,0.00,30.5,29.0,00.0,39.3,32.4,11.1,0000.0,0014.23,0003.98,0002.98
2022-10-23 18:41:00,,0804.8,4.99,0.00,30.5,27.6,00.0,39.2,32.2,11.1,0000.0,0014.41,0003.91,0002.90
2022-10-23 18:42:00,,0804.8,5.01,0.00,30.4,26.4,00.0,39.1,32.1,11.2,0000.0,0014.09,0003.82,0002.80
2022-10-23 18:43:00,,0804.8,5.00,0.00,30.3,26.4,00.0,39.1,32.0,11.3,0000.0,0013.72,0003.79,0002.74
2022-10-23 18:44:00,,0804.8,5.00,0.00,30.2,26.7,00.0,39.0,31.8,11.3,0000.0,0013.49,0003.75,0002.72
2022-10-23 18:45:00,,0804.8,4.99,0.00,30.2,27.1,00.0,39.0,31.7,11.3,0000.0,0013.17,0003.77,0002.73
2022-10-23 18:46:00,,0804.7,4.99,0.00,30.1,27.5,00.0,39.0,31.7,11.3,0000.0,0011.78,0003.72,0002.69
2022-10-23 18:47:00,,0804.8,5.01,0.00,30.1,27.8,00.0,39.0,31.8,11.1,0000.0,0010.80,0003.61,0002.57
2022-10-23 18:48:00,,0805.0,5.00,0.00,30.1,28.0,00.0,39.0,31.9,11.1,0000.0,0010.03,0003.49,0002.45
2022-10-23 18:49:00,,0805.0,5.00,0.00,30.1,28.2,00.0,39.0,31.9,11.3,0000.0,0009.93,0003.40,0002.36
2022-10-23 18:50:00,,0805.0,5.01,0.00,30.1,28.4,00.0,39.0,31.9,11.2,0000.0,0009.07,0003.38,0002.32
2022-10-23 18:51:00,,0805.0,4.99,0.00,30.1,28.5,00.0,39.0,31.9,10.7,0000.0,0008.62,0003.27,0002.19
2022-10-23 18:52:00,,0805.0,4.99,0.00,30.1,28.6,00.0,39.0,31.9,10.0,0000.0,0008.11,0003.13,0002.05
2022-10-23 18:53:00,,0805.0,5.02,0.00,30.1,28.6,00.0,39.0,31.9,09.7,0000.0,0007.86,0002.91,0001.86
2022-10-23 18:54:00,,0804.9,4.99,0.00,30.1,28.7,00.0,39.0,31.9,09.7,0000.0,0007.67,0002.59,0001.65
2022-10-23 18:55:00,,0804.9,4.99,0.00,30.1,28.7,00.0,39.0,32.0,09.8,0000.0,0007.16,0002.29,0001.44
2022-10-23 18:56:00,,0804.8,4.99,0.00,30.1,28.7,00.0,39.0,32.0,09.9,0000.0,0005.40,0001.84,0001.19
2022-10-23 18:57:00,,0804.9,5.02,0.00,30.2,28.8,00.0,39.0,32.0,09.9,0000.0,0004.89,0001.52,0000.96
2022-10-23 18:58:00,,0804.8,4.99,0.00,30.2,28.8,00.0,39.0,32.0,10.2,0000.0,0003.97,0001.30,0000.81
2022-10-23 18:59:00,,0804.8,5.00,0.00,30.2,28.8,00.0,39.0,32.0,10.4,0000.0,0003.64,0001.19,0000.72
